This is the latest recevied weather packets stored in our database for station/object CQ0XPG-11. If no packets are shown the sender has not sent any weather packets the latest 1 day(s).
| Time | Temp. | Humidity | Pressure | Rain* | Wind** | Luminosity | Snow |
|---|---|---|---|---|---|---|---|
| 1777997480 | 17.22° C | 59% | 1005.7 hPa | 0 mm | 0.45 m/s, 337° | - | - |
| 1777997162 | 17.22° C | 59% | 1005.7 hPa | 0 mm | 0.89 m/s, 337° | - | - |
| 1777996858 | 17.22° C | 59% | 1005.8 hPa | 0 mm | 1.34 m/s, 337° | - | - |
| 1777996569 | 17.22° C | 59% | 1005.8 hPa | 0 mm | 0.45 m/s, 337° | - | - |
| 1777996246 | 16.67° C | 61% | 1005.8 hPa | 0 mm | 2.68 m/s, 337° | - | - |
| 1777995943 | 16.67° C | 60% | 1005.8 hPa | 0 mm | 1.79 m/s, 337° | - | - |
| 1777995344 | 16.11° C | 69% | 1005.9 hPa | 0 mm | 1.34 m/s, 337° | - | - |
| 1777994754 | 16.67° C | 62% | 1006 hPa | 0 mm | 1.34 m/s, 337° | - | - |
| 1777994441 | 17.22° C | 62% | 1006 hPa | 0 mm | 1.79 m/s, 337° | - | - |
| 1777994129 | 17.78° C | 63% | 1006 hPa | 0 mm | 1.79 m/s, 337° | - | - |
| 1777993854 | 17.78° C | 62% | 1006.1 hPa | 0 mm | 0.89 m/s, 337° | - | - |
| 1777993523 | 17.78° C | 61% | 1006.2 hPa | 0 mm | 0.45 m/s, 337° | - | - |
| 1777993209 | 17.22° C | 62% | 1006.2 hPa | 0 mm | 1.34 m/s, 337° | - | - |
| 1777992598 | 17.22° C | 62% | 1006.3 hPa | 0 mm | 0 m/s | - | - |
| 1777992323 | 16.67° C | 64% | 1006.2 hPa | 0 mm | 2.24 m/s, 337° | - | - |
| 1777991701 | 16.67° C | 61% | 1006.5 hPa | 0 mm | 0.45 m/s, 337° | - | - |
| 1777991119 | 16.67° C | 61% | 1006.5 hPa | 0 mm | 0.89 m/s, 337° | - | - |
| 1777990788 | 16.67° C | 61% | 1006.5 hPa | 0 mm | 2.68 m/s, 337° | - | - |
| 1777990492 | 16.67° C | 65% | 1006.5 hPa | 0 mm | 0.45 m/s, 337° | - | - |
| 1777990193 | 16.67° C | 63% | 1006.7 hPa | 0 mm | 2.24 m/s, 337° | - | - |
| 1777989883 | 16.67° C | 61% | 1006.7 hPa | 0 mm | 0.45 m/s, 337° | - | - |
| 1777989577 | 16.67° C | 62% | 1006.7 hPa | 0 mm | 1.79 m/s, 337° | - | - |
| 1777989283 | 16.11° C | 68% | 1006.7 hPa | 0 mm | 0.45 m/s, 337° | - | - |
| 1777988670 | 16.11° C | 67% | 1006.8 hPa | 0 mm | 0.45 m/s, 337° | - | - |
| 1777988369 | 16.11° C | 62% | 1006.8 hPa | 0 mm | 1.34 m/s, 337° | - | - |
* Rain since midnight (hover to see other rain measurements)
** Current wind speed in m/s (hover to see current wind gust speed)